Notices

What's New in latest Release from April 7th, 2021:

- Updated Glossary, including Speed of Maximum Gust, and Total Hourly Precipitation

- Updated national and regional climate services offices contacts and prices information

- Addition of station inventory lists for 1981-2010, 1971-2000, and 1961-1990 Normals.

If you haven't already, please take our survey and provide feedback about our website: https://eccc.sondage-survey.ca/f/LanguageSelection.aspx?s=442ca660-fcf1-47c0-95a9-59707d6fd709

Hourly Data Report for October 12, 2006

TORONTO CITY
ONTARIO

43°40'00.000" N
79°24'00.000" W
112.50 m
6158355
71508
XTO

Download Data

Hourly Data (October 2006)
Hourly Data Report for October 12, 2006
TIME
LST
Temp Definition
°C
Dew Point Definition
°C
Rel Hum Definition
%
Precip. Amount Definition
mm

Wind Dir Definition
10's deg

Wind Spd Definition
km/h
Visibility Definition
km
Stn Press Definition
kPa
Hmdx Definition


Wind Chill Definition


Weather Definition


00:00 14.0 13.6 97   LegendMM LegendMM   98.01     LegendNANA
01:00 11.1 10.1 94   LegendMM LegendMM   98.14     LegendNANA
02:00 10.8 9.1 89   LegendMM LegendMM   98.22     LegendNANA
03:00 10.7 8.9 89   LegendMM LegendMM   98.25     LegendNANA
04:00 9.3 5.5 77   LegendMM LegendMM   98.32     LegendNANA
05:00 8.9 5.5 79   LegendMM LegendMM   98.39     LegendNANA
06:00 8.1 4.5 78   LegendMM LegendMM   98.39     LegendNANA
07:00 7.8 4.5 80   LegendMM LegendMM   98.47     LegendNANA
08:00 7.4 2.7 72   LegendMM LegendMM   98.48     LegendNANA
09:00 7.4 1.8 68   LegendMM LegendMM   98.54     LegendNANA
10:00 7.6 -0.3 57   LegendMM LegendMM   98.55     LegendNANA
11:00 7.9 -1.3 52   LegendMM LegendMM   98.56     LegendNANA
12:00 7.7 -2.7 48   LegendMM LegendMM   98.59     LegendNANA
13:00 9.1 -2.9 43   LegendMM LegendMM   98.61     LegendNANA
14:00 6.6 -1.4 57   LegendMM LegendMM   98.76     LegendNANA
15:00 6.3 -1.4 58   LegendMM LegendMM   98.81     LegendNANA
16:00 4.4 -0.4 71   LegendMM LegendMM   98.89     LegendNANA
17:00 4.5 -2.0 63   LegendMM LegendMM   98.99     LegendNANA
18:00 4.4 -4.0 54   LegendMM LegendMM   99.02     LegendNANA
19:00 2.5 -1.3 76   LegendMM LegendMM   99.08     LegendNANA
20:00 2.7 -1.7 73   LegendMM LegendMM   99.11     LegendNANA
21:00 2.4 -2.1 72   LegendMM LegendMM   99.13     LegendNANA
22:00 2.0 -2.4 73   LegendMM LegendMM   99.14     LegendNANA
23:00 2.0 -3.2 68   LegendMM LegendMM   99.10     LegendNANA

Notes on Data Quality.

Legend

  • E = Estimated
  • M = Missing
  • NA = Not Available*
  • [empty] = Indicates an unobserved value
Date modified: